This is the latest recevied weather packets stored in our database for station/object KM4KMO-14. If no packets are shown the sender has not sent any weather packets the latest 10 day(s).
| Time | Temp. | Humidity | Pressure | Rain* | Wind** | Luminosity | Snow |
|---|---|---|---|---|---|---|---|
| 1777798645 | 7.78° C | 86% | 1016.7 hPa | 0 mm | - | - | - |
| 1777797744 | 7.78° C | 85% | 1016.7 hPa | 0 mm | - | - | - |
| 1777795946 | 7.78° C | 86% | 1016.5 hPa | 0 mm | - | - | - |
| 1777794145 | 8.33° C | 85% | 1016.2 hPa | 0 mm | - | - | - |
| 1777793246 | 8.33° C | 85% | 1016.3 hPa | 0 mm | - | - | - |
| 1777792346 | 8.33° C | 85% | 1016.1 hPa | 0 mm | - | - | - |
| 1777791446 | 8.33° C | 85% | 1016 hPa | 0 mm | - | - | - |
| 1777790545 | 8.89° C | 84% | 1016 hPa | 0 mm | - | - | - |
| 1777789646 | 8.89° C | 84% | 1016 hPa | 0 mm | - | - | - |
| 1777787846 | 9.44° C | 82% | 1016 hPa | 0 mm | - | - | - |
| 1777786946 | 9.44° C | 81% | 1015.8 hPa | 0 mm | - | - | - |
| 1777785146 | 9.44° C | 80% | 1015.8 hPa | 0 mm | - | - | - |
| 1777781546 | 10.56° C | 75% | 1015.3 hPa | 0 mm | - | - | - |
| 1777780646 | 10.56° C | 74% | 1015.3 hPa | 0 mm | - | - | - |
| 1777778846 | 11.67° C | 71% | 1015.2 hPa | 0 mm | - | - | - |
| 1777777046 | 12.22° C | 69% | 1015 hPa | 0 mm | - | - | - |
| 1777774347 | 13.33° C | 62% | 1014.5 hPa | 0 mm | - | - | - |
| 1777773447 | 13.89° C | 60% | 1014.2 hPa | 0 mm | - | - | - |
| 1777772546 | 13.89° C | 58% | 1013.9 hPa | 0 mm | - | - | - |
| 1777770746 | 14.44° C | 55% | 1013.7 hPa | 0 mm | - | - | - |
| 1777767147 | 16.11° C | 46% | 1012.4 hPa | 0 mm | - | - | - |
| 1777765347 | 16.67° C | 45% | 1011.9 hPa | 0 mm | - | - | - |
| 1777760847 | 19.44° C | 39% | 1011.7 hPa | 0 mm | - | - | - |
| 1777758147 | 18.89° C | 39% | 1011.5 hPa | 0 mm | - | - | - |
| 1777757247 | 18.89° C | 42% | 1011.4 hPa | 0 mm | - | - | - |
* Rain latest hour (hover to see other rain measurements)
** Current wind speed in m/s (hover to see current wind gust speed)